This is the latest recevied weather packets stored in our database for station/object NR0A-4. If no packets are shown the sender has not sent any weather packets the latest 10 day(s).
| Time | Temp. | Humidity | Pressure | Rain* | Wind** | Luminosity | Snow |
|---|---|---|---|---|---|---|---|
| 1777645504 | 7.22° C | 70% | 1019.5 hPa | 0 mm | - | 482 W/m² | - |
| 1777645205 | 7.22° C | 71% | 1019.4 hPa | 0 mm | - | 464 W/m² | - |
| 1777644904 | 7.22° C | 72% | 1019.3 hPa | 0 mm | - | 446 W/m² | - |
| 1777644605 | 6.67° C | 73% | 1019.3 hPa | 0 mm | - | 438 W/m² | - |
| 1777644304 | 6.67° C | 74% | 1019.3 hPa | 0 mm | - | 424 W/m² | - |
| 1777644004 | 6.11° C | 74% | 1019.3 hPa | 0 mm | - | 406 W/m² | - |
| 1777643704 | 6.11° C | 75% | 1019.2 hPa | 0 mm | - | 392 W/m² | - |
| 1777643404 | 5.56° C | 75% | 1019.2 hPa | 0 mm | - | 373 W/m² | - |
| 1777643105 | 5.56° C | 76% | 1019.1 hPa | 0 mm | - | 362 W/m² | - |
| 1777642805 | 5° C | 77% | 1019.1 hPa | 0 mm | - | 334 W/m² | - |
| 1777642504 | 5° C | 78% | 1019 hPa | 0 mm | - | 262 W/m² | - |
| 1777642205 | 5° C | 79% | 1018.9 hPa | 0 mm | - | 297 W/m² | - |
| 1777641905 | 4.44° C | 78% | 1018.9 hPa | 0 mm | - | 209 W/m² | - |
| 1777641605 | 4.44° C | 79% | 1018.9 hPa | 0 mm | - | 185 W/m² | - |
| 1777641305 | 4.44° C | 80% | 1018.9 hPa | 0 mm | - | 199 W/m² | - |
| 1777641005 | 3.89° C | 81% | 1018.8 hPa | 0 mm | - | 216 W/m² | - |
| 1777640705 | 3.89° C | 82% | 1018.8 hPa | 0 mm | - | 186 W/m² | - |
| 1777640404 | 3.33° C | 82% | 1018.8 hPa | 0 mm | - | 171 W/m² | - |
| 1777640105 | 3.33° C | 82% | 1018.7 hPa | 0 mm | - | 84 W/m² | - |
| 1777639804 | 3.33° C | 82% | 1018.8 hPa | 0 mm | - | 42 W/m² | - |
| 1777639504 | 3.33° C | 82% | 1018.7 hPa | 0 mm | - | 35 W/m² | - |
| 1777639204 | 3.33° C | 82% | 1018.6 hPa | 0 mm | - | 33 W/m² | - |
| 1777638905 | 2.78° C | 83% | 1018.6 hPa | 0 mm | - | 35 W/m² | - |
| 1777638605 | 2.78° C | 83% | 1018.5 hPa | 0 mm | - | 33 W/m² | - |
| 1777638305 | 2.78° C | 83% | 1018.5 hPa | 0 mm | - | 37 W/m² | - |
* Rain latest hour (hover to see other rain measurements)
** Current wind speed in m/s (hover to see current wind gust speed)